Location: Croissy-Beaubourg
(48.8283°N, 2.6696°E)
Time: 01:17:41
(UTC+00:00)

USA 215 - Pass Details

Date: 03 June 2022
Orbit: 1099 x 1108 km, 123.0° (Epoch: 10 June)

Event Time Altitude Azimuth Distance (km) Brightness Sun altitude
Rises 01:28:16 0° 58° (ENE) 3,924 7.1 -15.4°
Reaches altitude 10° 01:30:46 10° 55° (NE) 2,965 6.5 -15.2°
Maximum altitude 01:37:13 64° 337° (NNW) 1,214 3.7 -14.8°
Drops below altitude 10° 01:43:40 10° 257° (WSW) 2,964 5.1 -14.3°
Enters shadow 01:45:02 - 256° (WSW) 3,484 5.5 -14.2°
